[[{"header":{"parameterUnit":"m.s-1","parameterCategory":1,"la1":30.2991,"la2":30.254,"lo1":-89.0895,"lo2":-89.0444,"dy":0.0017,"dx":0.0017,"nx":28,"ny":28,"refTime":"2024-03-27T21:00:00:Z","depth":0,"parameterNumber":2,"parameterNumberName":"U-component_of_WINDS"},"data":[0,0,0,0,0,0,0,0,0,0,0,0,0,0,0,0,0,0,0,0,0,0,0,0,0,0,0,0,0,0,0,0,0,0,0,0,0,0,0,0,0,0,0,0,0,0,0,0,0,0,0,0,0,0,0,0,0,0,1.7026,1.7027,0,1.7108,1.7109,1.711,1.712,1.7119,1.7118,1.7117,1.7198,1.7201,1.7204,0,0,0,0,0,0,0,0,0,0,0,0,0,1.6878,1.6881,1.7026,1.7027,1.7028,1.7108,1.7109,1.711,1.712,1.7119,1.7118,1.7117,1.7197,1.72,1.7204,0,0,0,0,0,0,0,0,0,0,0,0,0,1.6949,1.6882,1.7026,1.7043,1.7045,1.7108,1.7109,1.711,1.712,1.7119,1.7117,1.7116,1.7196,1.72,1.7204,1.7255,0,0,1.7218,1.7219,0,0,0,0,0,0,0,0,1.6945,1.6955,1.7039,1.7042,1.7044,1.7102,1.7086,1.7159,1.712,1.7091,1.7117,1.7116,1.7167,1.7174,1.7191,1.7259,1.7262,1.7218,1.7221,1.7222,1.7224,0,0,0,0,0,0,0,1.694,1.6951,1.7058,1.7041,1.7044,1.7046,1.7055,1.71,1.7135,1.7094,1.7095,1.7104,1.7168,1.7187,1.7193,1.7263,1.7218,1.7222,1.7224,1.7226,1.7378,1.738,0,0,0,0,0,0,1.6933,1.6947,1.7056,1.7061,1.6991,1.705,1.7059,1.7085,1.7134,1.7141,1.7105,1.7105,1.718,1.7188,1.7196,1.726,1.7222,1.7226,1.7229,1.7377,1.7379,1.738,0,0,0,0,0,0,1.6929,1.6942,1.7053,1.7004,1.7019,1.7054,1.7082,1.7087,1.7106,1.7143,1.7149,1.7119,1.718,1.719,1.7241,1.7263,1.7228,1.7232,1.7375,1.7378,1.738,1.7387,0,0,0,0,0,0,1.6925,1.6941,1.696,1.7005,1.7021,1.7096,1.7083,1.709,1.7114,1.7114,1.7157,1.7163,1.718,1.7234,1.7245,1.7268,1.7236,1.7373,1.7376,1.7379,1.7385,1.7389,1.7393,0,0,0,0,0,1.692,1.6958,1.6961,1.6974,1.7046,1.7097,1.7107,1.7126,1.7116,1.7136,1.716,1.7162,1.7259,1.724,1.7252,1.7276,1.7372,1.7376,1.7379,1.7383,1.7388,1.7393,0,0,0,0,0,0,1.6914,1.6964,1.6968,1.7022,1.7056,1.7099,1.7124,1.713,1.7166,1.7164,1.7186,1.7196,1.7246,1.7266,1.7244,1.7329,1.7315,1.732,1.7314,1.7319,1.7323,1.7317,1.7239,0,0,0,0,0,1.6919,1.6957,1.6999,1.7042,1.7059,1.7089,1.7112,1.7124,1.7159,1.7173,1.72,1.7234,1.7272,1.7297,1.7334,1.7388,1.7398,1.7412,1.7415,1.7418,1.7423,1.7455,1.7462,1.7391,1.7391,1.7391,0,0,1.6929,1.6962,1.6984,1.7042,1.7069,1.7108,1.7101,1.7141,1.717,1.7179,1.7229,1.7251,1.7289,1.7343,1.7368,1.7361,1.7445,1.7423,1.7425,1.7428,1.7459,1.7466,1.7472,1.7393,1.7393,1.7393,0,0,1.6969,1.6997,1.7037,1.7065,1.7108,1.7128,1.7138,1.7181,1.7196,1.7247,1.7255,1.729,1.7355,1.7383,1.7406,1.7459,1.7462,1.747,1.749,1.7521,1.7527,1.7532,1.7552,1.7559,1.7475,1.7475,1.7475,0,1.6976,1.7035,1.7057,1.7098,1.7124,1.7135,1.7177,1.7203,1.7254,1.7272,1.7265,1.7348,1.7375,1.7436,1.745,1.7467,1.7479,1.7465,1.7525,1.753,1.7535,1.7554,1.7561,1.7476,1.7476,1.7476,1.7476,0,1.7043,1.7084,1.7111,1.7163,1.7192,1.7233,1.7261,1.7287,1.7298,1.7319,1.7372,1.7405,1.745,1.7466,1.7475,1.7529,1.7524,1.752,1.7506,1.7542,1.7561,1.7568,1.7477,1.7477,1.7476,1.7476,0,0,1.7078,1.7144,1.7153,1.7178,1.7227,1.7259,1.7301,1.7346,1.7369,1.7405,1.7442,1.7498,1.7496,1.7522,1.7535,1.7563,1.7604,1.7556,1.7557,1.7564,1.7666,1.7669,1.7677,1.7607,1.7609,1.761,1.7663,0,1.7123,1.7199,1.7221,1.7286,1.7325,1.7338,1.7375,1.7409,1.743,1.7466,1.749,1.753,1.7524,1.754,1.7568,1.7593,1.7625,1.759,1.7641,1.7643,1.7631,1.7686,1.7688,1.7737,1.7671,1.7672,1.7673,0,1.7185,1.7225,1.7293,1.7339,1.7356,1.7389,1.7434,1.7468,1.7508,1.7522,1.7553,1.7564,1.7609,1.7594,1.7656,1.7632,1.7655,1.7671,1.7673,1.7678,1.7659,1.7693,1.7753,1.776,1.7684,1.7683,1.7682,0,1.7205,1.7275,1.7326,1.7346,1.7401,1.7424,1.7448,1.7487,1.7513,1.7553,1.757,1.7614,1.7637,1.7671,1.7694,1.768,1.7755,1.7741,1.7768,1.7768,1.7783,1.7781,1.7847,1.7797,1.7797,1.7797,1.7797,0,1.7253,1.7294,1.7336,1.7367,1.7414,1.744,1.7486,1.751,1.7545,1.7581,1.7595,1.7629,1.7658,1.7695,1.7714,1.7764,1.7774,1.7787,1.7791,1.7786,1.7784,1.78,1.7797,1.7799,1.7799,1.7798,1.7798,0,1.7282,1.7311,1.7368,1.7416,1.743,1.7462,1.7504,1.7535,1.7558,1.7604,1.7616,1.7653,1.7698,1.7725,1.7782,1.7795,1.785,1.7853,1.7837,1.7839,1.7865,1.7862,1.7943,1.7955,1.7897,1.7898,1.7898,0,1.731,1.7343,1.7396,1.7422,1.7447,1.7488,1.7516,1.7543,1.7572,1.7621,1.7647,1.7693,1.7732,1.7804,1.7835,1.788,1.7884,1.7909,1.789,1.7884,1.7885,1.7882,1.7886,1.7912,1.7912,1.7913,1.7913,0,1.7358,1.7372,1.7412,1.7459,1.7492,1.753,1.7567,1.7587,1.7621,1.7653,1.77,1.7731,1.779,1.7837,1.7884,1.7909,1.7917,1.7919,1.7928,1.7922,1.7912,1.7919,1.7846,1.7917,1.7917,1.7916,1.7916,1.7916,1.7388,1.7418,1.7461,1.7506,1.7538,1.7573,1.7605,1.7634,1.7674,1.7726,1.774,1.779,1.7831,1.7896,1.7922,1.7961,1.7957,1.7969,1.7973,1.7975,1.7976,1.7906,1.797,1.797,1.797,1.797,1.797,0,1.7436,1.7465,1.7507,1.756,1.7596,1.7603,1.7645,1.7675,1.7719,1.7757,1.7796,1.7852,1.7898,1.7934,1.7981,1.8006,1.8011,1.8017,1.8015,1.8021,1.7977,1.7965,1.8013,1.8013,1.8013,1.8013,1.8013,1.8013,1.7466,1.7518,1.7537,1.7606,1.7635,1.7685,1.7709,1.7742,1.7773,1.7835,1.7874,1.7898,1.7936,1.7986,1.8029,1.8039,1.8055,1.8061,1.8071,1.8029,1.8024,1.802,1.8009,1.8065,1.8065,1.8113,1.8113,1.8113]},{"header":{"parameterUnit":"m.s-1","parameterCategory":1,"la1":30.2991,"la2":30.254,"lo1":-89.0895,"lo2":-89.0444,"dy":0.0017,"dx":0.0017,"nx":28,"ny":28,"refTime":"2024-03-27T21:00:00:Z","depth":0,"parameterNumber":3,"parameterNumberName":"V-component_of_WINDS"},"data":[0,0,0,0,0,0,0,0,0,0,0,0,0,0,0,0,0,0,0,0,0,0,0,0,0,0,0,0,0,0,0,0,0,0,0,0,0,0,0,0,0,0,0,0,0,0,0,0,0,0,0,0,0,0,0,0,0,0,-6.6759,-6.6759,0,-6.6766,-6.6766,-6.6766,-6.6661,-6.6658,-6.6655,-6.6652,-6.6658,-6.6661,-6.6663,0,0,0,0,0,0,0,0,0,0,0,0,0,-6.6651,-6.6653,-6.6759,-6.6759,-6.6759,-6.6766,-6.6766,-6.6766,-6.6661,-6.6658,-6.6654,-6.6651,-6.6657,-6.666,-6.6664,0,0,0,0,0,0,0,0,0,0,0,0,0,-6.6682,-6.6654,-6.6759,-6.6707,-6.6703,-6.6766,-6.6766,-6.6766,-6.6662,-6.6658,-6.6653,-6.6649,-6.6656,-6.666,-6.6664,-6.6776,0,0,-6.6677,-6.6679,0,0,0,0,0,0,0,0,-6.668,-6.6686,-6.6715,-6.6711,-6.6706,-6.6708,-6.673,-6.677,-6.6663,-6.6678,-6.6652,-6.6647,-6.6678,-6.668,-6.6691,-6.6777,-6.6777,-6.6677,-6.668,-6.6682,-6.6683,0,0,0,0,0,0,0,-6.6678,-6.6685,-6.6762,-6.6715,-6.671,-6.6683,-6.6683,-6.6737,-6.6702,-6.6676,-6.6668,-6.6671,-6.6675,-6.6687,-6.669,-6.6777,-6.6677,-6.6681,-6.6684,-6.6685,-6.6954,-6.6958,0,0,0,0,0,0,-6.6683,-6.6684,-6.6761,-6.6762,-6.6682,-6.6689,-6.6688,-6.6712,-6.6701,-6.6695,-6.6674,-6.6666,-6.6682,-6.6685,-6.669,-6.682,-6.6682,-6.6686,-6.6688,-6.6949,-6.6955,-6.696,0,0,0,0,0,0,-6.6681,-6.6691,-6.6761,-6.6721,-6.6728,-6.6695,-6.6722,-6.6714,-6.6726,-6.67,-6.6693,-6.6694,-6.6679,-6.6684,-6.6756,-6.6819,-6.6688,-6.6692,-6.6944,-6.6951,-6.6958,-6.7081,0,0,0,0,0,0,-6.6679,-6.6691,-6.6734,-6.6723,-6.673,-6.6828,-6.6726,-6.6718,-6.6734,-6.6723,-6.6716,-6.6711,-6.6676,-6.675,-6.676,-6.6822,-6.6695,-6.6938,-6.6947,-6.6955,-6.7071,-6.7092,-6.7109,0,0,0,0,0,-6.6675,-6.6768,-6.6737,-6.6747,-6.6783,-6.6831,-6.6836,-6.6794,-6.674,-6.6782,-6.6765,-6.6711,-6.681,-6.6758,-6.6768,-6.6833,-6.6934,-6.6945,-6.6955,-6.7063,-6.7088,-6.7108,0,0,0,0,0,0,-6.6787,-6.6766,-6.6731,-6.6823,-6.683,-6.6814,-6.6866,-6.6822,-6.6844,-6.6832,-6.6779,-6.6779,-6.6859,-6.6853,-6.6795,-6.694,-6.6862,-6.6875,-6.6941,-6.6964,-6.6983,-6.6982,-6.6698,0,0,0,0,0,-6.6823,-6.6865,-6.6843,-6.6927,-6.6932,-6.6899,-6.6918,-6.6886,-6.6891,-6.6893,-6.688,-6.6887,-6.6919,-6.6941,-6.697,-6.707,-6.7067,-6.712,-6.7138,-6.7154,-6.7166,-6.7217,-6.7241,-6.6994,-6.6994,-6.6994,0,0,-6.6897,-6.689,-6.692,-6.6949,-6.6951,-6.6994,-6.6902,-6.6952,-6.6983,-6.69,-6.6967,-6.6958,-6.6961,-6.7048,-6.7085,-6.7045,-6.7233,-6.7167,-6.718,-6.7183,-6.7231,-6.7254,-6.7275,-6.7001,-6.7,-6.6999,0,0,-6.7053,-6.7053,-6.7122,-6.7126,-6.7129,-6.7107,-6.7123,-6.7114,-6.7105,-6.7171,-6.711,-6.7146,-6.7203,-6.7208,-6.7218,-6.7376,-6.7327,-6.7387,-6.7484,-6.7536,-6.7555,-6.7572,-6.7628,-6.7649,-6.7399,-6.7399,-6.7399,0,-6.7144,-6.7208,-6.7163,-6.7217,-6.7232,-6.7159,-6.7228,-6.7233,-6.7246,-6.7258,-6.7213,-6.7283,-6.728,-6.7366,-6.7405,-6.7416,-6.7433,-6.7387,-6.7556,-6.7573,-6.7588,-6.764,-6.7662,-6.7406,-6.7405,-6.7405,-6.7404,0,-6.7319,-6.7364,-6.7419,-6.7434,-6.7455,-6.7517,-6.748,-6.7506,-6.7472,-6.7454,-6.7522,-6.7516,-6.7542,-6.756,-6.7527,-6.7642,-6.7617,-6.7565,-6.7486,-6.7619,-6.7668,-6.7688,-6.7417,-6.7414,-6.7412,-6.741,0,0,-6.7546,-6.7535,-6.7556,-6.7562,-6.7561,-6.7594,-6.7652,-6.7678,-6.7701,-6.7712,-6.7759,-6.7809,-6.7761,-6.7773,-6.774,-6.7785,-6.791,-6.7727,-6.7727,-6.7761,-6.8035,-6.8073,-6.8098,-6.7878,-6.7881,-6.7884,-6.8035,0,-6.7697,-6.7796,-6.7757,-6.7859,-6.7899,-6.7831,-6.7881,-6.7886,-6.787,-6.7902,-6.7884,-6.7921,-6.7855,-6.7861,-6.7903,-6.7886,-6.7964,-6.7875,-6.792,-6.7922,-6.792,-6.8123,-6.8164,-6.8306,-6.8053,-6.8056,-6.8059,0,-6.7887,-6.7907,-6.8013,-6.8004,-6.802,-6.8066,-6.8086,-6.8117,-6.8121,-6.8106,-6.8119,-6.8076,-6.8131,-6.8053,-6.8128,-6.8068,-6.8084,-6.8079,-6.8083,-6.8085,-6.7998,-6.813,-6.835,-6.8371,-6.8088,-6.8086,-6.8084,0,-6.8041,-6.8094,-6.8164,-6.8171,-6.8163,-6.8196,-6.8195,-6.8194,-6.8212,-6.8229,-6.824,-6.8264,-6.8277,-6.8296,-6.826,-6.8207,-6.834,-6.8259,-6.8329,-6.833,-6.8359,-6.8358,-6.8585,-6.8372,-6.8371,-6.8371,-6.8371,0,-6.8213,-6.8281,-6.8232,-6.8276,-6.8349,-6.8303,-6.8377,-6.8367,-6.8367,-6.8406,-6.8349,-6.8387,-6.8338,-6.8371,-6.8343,-6.8409,-6.8416,-6.8405,-6.8397,-6.841,-6.8411,-6.8419,-6.8408,-6.8377,-6.8375,-6.8374,-6.8373,0,-6.8397,-6.8368,-6.8439,-6.8426,-6.8424,-6.8479,-6.8467,-6.8506,-6.8486,-6.8537,-6.8546,-6.8516,-6.8552,-6.8518,-6.8553,-6.8534,-6.8622,-6.86,-6.8621,-6.8614,-6.8686,-6.868,-6.8925,-6.8955,-6.8724,-6.8726,-6.8728,0,-6.8509,-6.8559,-6.8551,-6.8574,-6.8576,-6.8613,-6.8631,-6.8588,-6.8609,-6.8617,-6.8655,-6.8686,-6.8709,-6.8769,-6.875,-6.8776,-6.8753,-6.8838,-6.8757,-6.8768,-6.8753,-6.8751,-6.8755,-6.8854,-6.8856,-6.8859,-6.8861,0,-6.871,-6.8693,-6.8721,-6.8746,-6.8769,-6.8785,-6.8797,-6.8819,-6.8775,-6.8801,-6.8838,-6.8856,-6.8891,-6.8922,-6.8942,-6.8939,-6.8893,-6.8886,-6.8904,-6.8917,-6.8927,-6.8922,-6.8665,-6.8881,-6.8879,-6.8877,-6.8876,-6.8875,-6.886,-6.8901,-6.8902,-6.8936,-6.8941,-6.8953,-6.8989,-6.8975,-6.9004,-6.903,-6.9003,-6.9047,-6.9049,-6.9071,-6.9073,-6.9107,-6.9071,-6.9097,-6.9103,-6.911,-6.912,-6.8923,-6.911,-6.911,-6.9109,-6.9109,-6.9108,0,-6.9057,-6.9055,-6.9086,-6.9105,-6.9132,-6.9087,-6.9097,-6.9122,-6.9162,-6.9168,-6.9192,-6.9233,-6.9264,-6.9247,-6.9273,-6.9303,-6.9283,-6.9312,-6.9308,-6.9308,-6.9151,-6.9133,-6.9328,-6.9328,-6.9328,-6.9328,-6.9328,-6.9328,-6.9163,-6.923,-6.9214,-6.9282,-6.9279,-6.9322,-6.9332,-6.9343,-6.9347,-6.9397,-6.9422,-6.9411,-6.9408,-6.9433,-6.9459,-6.9453,-6.9465,-6.9502,-6.9488,-6.9341,-6.9319,-6.9299,-6.9282,-6.9505,-6.9505,-6.9643,-6.9644,-6.9645]}]]